{"data":{"norad_id":66765,"epoch":"2026-09-20T22:32:50.830944Z","epoch_age_seconds":79503,"freshness":"FRESH","line1":"1 66765U 25276DD  26263.93947721  .00007260  00000+0  28728-3 0  9997","line2":"2 66765  97.4140 337.3931 0000806  90.3566 269.7765 15.25748959 45061","mean_motion":15.25748959,"eccentricity":8.06e-5,"inclination_deg":97.414,"raan_deg":337.3931,"arg_perigee_deg":90.3566,"mean_anomaly_deg":269.7765,"bstar":0.00028728,"rev_number":4506,"period_min":94.379877600821,"perigee_km":487.98392004324,"apogee_km":489.09082795233,"semimajor_km":6866.6743739978,"source":"CELESTRAK","updated_at":"2026-09-21T09:00:16.184165Z"}}